�N����,����,�~����,�C��,���x,�C��,����,���ϕ���,�ő�u�ԕ���,�ő厞����,���˗�,�I�_���x,�n�����x,�ő啗���N��,DTYPE
"23/12/18","00:10",0.0,0.9,74.0,1019.7,259.8,1.1,2.6,248.8,0.00,-3.2,8.9,"00:03:12",1
"23/12/18","00:20",0.0,0.8,74.6,1019.7,233.1,0.7,1.9,244.1,0.00,-3.2,8.8,"00:17:04",1
"23/12/18","00:30",0.0,1.0,74.9,1019.9,232.3,1.7,3.2,242.8,0.00,-2.9,9.2,"00:22:56",1
"23/12/18","00:40",0.0,1.0,75.2,1020.1,257.3,1.7,3.2,244.2,0.00,-2.9,8.8,"00:30:02",1
"23/12/18","00:50",0.0,1.1,75.3,1020.4,230.1,2.1,3.4,226.8,0.00,-2.7,9.0,"00:44:24",1
"23/12/18","01:00",0.0,1.1,75.2,1020.4,236.5,2.0,3.5,244.5,0.00,-2.8,8.8,"00:53:50",1
"23/12/18","01:10",0.0,1.1,75.3,1020.6,238.1,1.7,3.9,240.3,0.00,-2.7,8.8,"01:09:28",1
"23/12/18","01:20",0.0,1.1,75.4,1020.4,233.9,2.2,4.0,227.1,0.00,-2.7,8.8,"01:10:58",1
"23/12/18","01:30",0.0,1.1,75.5,1020.4,241.6,2.3,4.9,234.8,0.00,-2.7,8.7,"01:22:50",1
"23/12/18","01:40",0.0,1.0,75.7,1020.4,251.7,1.8,4.2,231.3,0.00,-2.8,8.8,"01:32:32",1
"23/12/18","01:50",0.0,1.0,75.7,1020.4,270.0,1.3,2.6,254.0,0.00,-2.8,8.9,"01:40:24",1
"23/12/18","02:00",0.0,0.8,75.9,1021.1,301.5,0.8,1.9,308.7,0.00,-2.9,8.7,"01:55:52",1
"23/12/18","02:10",0.0,0.8,76.1,1020.8,297.8,1.0,1.8,302.3,0.00,-2.9,8.6,"02:07:28",1
"23/12/18","02:20",0.0,1.0,76.3,1021.1,265.6,1.5,3.4,225.2,0.00,-2.7,8.7,"02:11:04",1
"23/12/18","02:30",0.0,0.9,76.4,1020.4,256.3,0.7,2.1,241.1,0.00,-2.7,8.4,"02:22:48",1
"23/12/18","02:40",0.0,0.8,76.5,1020.4,309.8,1.0,1.9,344.2,0.00,-2.8,8.7,"02:34:56",1
"23/12/18","02:50",0.0,0.8,76.7,1020.8,319.2,1.6,2.7,337.6,0.00,-2.8,8.6,"02:48:56",1
"23/12/18","03:00",0.0,0.7,77.0,1020.4,302.8,1.6,2.4,317.0,0.00,-2.8,8.6,"02:50:08",1
"23/12/18","03:10",0.0,0.9,77.2,1020.8,297.0,1.0,1.9,266.0,0.00,-2.6,8.5,"03:03:52",1
"23/12/18","03:20",0.0,1.1,77.5,1021.1,235.7,0.8,1.9,188.8,0.00,-2.3,8.4,"03:10:02",1
"23/12/18","03:30",0.0,1.2,77.3,1021.3,273.9,1.3,2.1,324.3,0.00,-2.3,8.4,"03:25:10",1
"23/12/18","03:40",0.0,1.2,77.2,1021.3,309.3,1.6,2.4,311.2,0.00,-2.3,8.3,"03:36:06",1
"23/12/18","03:50",0.0,1.3,76.9,1021.3,263.6,0.8,2.1,223.2,0.00,-2.3,8.5,"03:43:36",1
"23/12/18","04:00",0.0,1.2,76.9,1021.1,316.9,0.8,2.4,348.6,0.00,-2.4,8.4,"03:57:52",1
"23/12/18","04:10",0.0,1.1,77.1,1021.1,313.2,1.6,3.2,303.8,0.00,-2.4,8.5,"04:03:44",1
"23/12/18","04:20",0.0,1.2,77.1,1021.1,309.3,1.2,2.0,330.9,0.00,-2.3,8.5,"04:14:16",1
"23/12/18","04:30",0.0,1.2,77.3,1021.3,278.6,1.7,3.4,325.4,0.00,-2.3,8.6,"04:25:54",1
"23/12/18","04:40",0.0,1.1,77.6,1020.8,294.2,1.8,3.6,324.3,0.00,-2.3,8.3,"04:37:36",1
"23/12/18","04:50",0.0,1.1,77.9,1021.3,269.2,1.5,2.4,210.0,0.00,-2.3,8.3,"04:47:50",1
"23/12/18","05:00",0.0,1.0,78.1,1021.5,272.6,1.7,3.6,248.8,0.00,-2.3,8.3,"04:59:56",1
"23/12/18","05:10",0.0,1.1,78.2,1021.3,256.5,2.0,3.1,296.5,0.00,-2.2,8.3,"05:00:16",1
"23/12/18","05:20",0.0,1.0,78.2,1021.5,269.2,1.6,2.8,246.2,0.00,-2.3,8.3,"05:17:04",1
"23/12/18","05:30",0.0,1.0,78.3,1021.5,267.9,1.7,3.1,306.5,0.00,-2.3,8.2,"05:25:36",1
"23/12/18","05:40",0.0,1.0,78.4,1021.8,243.8,0.7,1.8,228.9,0.00,-2.3,8.4,"05:30:56",1
"23/12/18","05:50",0.0,1.0,78.6,1021.8,248.2,0.7,1.7,254.7,0.00,-2.3,8.3,"05:49:04",1
"23/12/18","06:00",0.0,1.1,78.8,1021.8,243.8,0.5,1.3,134.0,0.00,-2.1,8.4,"05:57:52",1
"23/12/18","06:10",0.0,1.0,78.9,1022.0,258.5,0.8,2.2,239.8,0.00,-2.2,8.2,"06:02:08",1
"23/12/18","06:20",0.0,1.0,79.1,1022.0,262.6,0.6,1.1,229.6,0.00,-2.2,8.3,"06:18:48",1
"23/12/18","06:30",0.0,1.2,79.5,1021.5,219.6,1.0,3.4,205.1,0.00,-1.9,8.2,"06:28:00",1
"23/12/18","06:40",0.0,1.3,79.3,1022.3,253.7,1.8,2.7,253.7,0.00,-1.8,8.2,"06:37:14",1
"23/12/18","06:50",0.0,1.2,79.2,1022.3,258.4,1.6,2.7,256.9,0.00,-2.0,8.3,"06:46:42",1
"23/12/18","07:00",0.0,1.3,79.1,1022.3,248.0,2.2,5.6,236.2,0.00,-1.9,8.4,"06:53:06",1
"23/12/18","07:10",0.0,1.3,79.0,1022.3,269.7,2.1,3.4,197.8,0.00,-1.9,8.3,"07:07:06",1
"23/12/18","07:20",0.0,1.4,78.9,1022.3,286.0,1.6,2.8,331.3,0.00,-1.8,8.1,"07:11:12",1
"23/12/18","07:30",0.0,1.4,78.7,1022.0,275.0,1.5,2.1,306.0,0.00,-1.8,8.1,"07:24:48",1
"23/12/18","07:40",0.0,1.5,78.6,1022.3,286.4,1.6,4.1,251.6,0.00,-1.8,8.1,"07:38:28",1
"23/12/18","07:50",0.0,1.6,78.2,1022.3,282.4,1.7,4.1,244.6,0.01,-1.7,8.1,"07:41:10",1
"23/12/18","08:00",0.0,1.8,77.7,1022.7,299.4,1.6,2.5,283.8,0.02,-1.6,8.2,"07:56:04",1
"23/12/18","08:10",0.0,1.9,77.2,1022.7,287.8,1.8,3.4,300.8,0.03,-1.6,8.2,"08:07:48",1
"23/12/18","08:20",0.0,2.0,76.8,1023.0,284.9,1.5,2.2,328.5,0.03,-1.6,8.2,"08:17:20",1
"23/12/18","08:30",0.0,2.0,76.6,1023.0,288.2,1.6,2.6,333.4,0.04,-1.6,8.2,"08:20:24",1
"23/12/18","08:40",0.0,2.2,76.3,1023.0,263.0,2.6,5.0,246.5,0.11,-1.5,8.1,"08:35:50",1
"23/12/18","08:50",0.0,2.6,76.0,1022.7,295.0,2.7,4.2,321.9,0.19,-1.2,8.1,"08:48:00",1
"23/12/18","09:00",0.0,3.0,75.0,1023.7,288.9,3.1,4.7,340.5,0.15,-1.0,8.0,"08:55:44",1
"23/12/18","09:10",0.0,3.3,74.4,1023.2,288.3,3.2,5.4,255.0,0.17,-0.8,8.2,"09:04:16",1
"23/12/18","09:20",0.0,3.3,73.0,1023.2,279.8,3.4,7.5,252.1,0.14,-1.0,8.0,"09:19:12",1
"23/12/18","09:30",0.0,3.3,72.8,1023.7,289.2,3.2,5.7,311.0,0.18,-1.1,8.2,"09:26:48",1
"23/12/18","09:40",0.0,3.5,72.3,1023.2,304.3,3.2,5.9,315.8,0.15,-1.0,8.1,"09:35:52",1
"23/12/18","09:50",0.0,3.8,71.9,1023.7,292.2,3.2,4.2,313.7,0.20,-0.8,8.0,"09:44:16",1
"23/12/18","10:00",0.0,4.4,71.0,1024.4,311.1,3.4,6.4,342.8,0.43,-0.4,8.2,"09:57:52",1
"23/12/18","10:10",0.0,4.6,70.3,1024.1,318.2,4.4,6.8,311.1,0.42,-0.3,8.2,"10:01:28",1
"23/12/18","10:20",0.0,4.8,68.9,1024.1,292.8,3.6,6.4,317.9,0.41,-0.4,8.3,"10:18:42",1
"23/12/18","10:30",0.0,5.4,68.1,1023.9,290.2,3.4,5.6,250.6,0.43,0.0,8.3,"10:26:32",1
"23/12/18","10:40",0.0,5.8,66.9,1023.0,301.2,3.7,6.4,321.6,0.43,0.2,8.5,"10:36:00",1
"23/12/18","10:50",0.0,6.7,65.6,1023.2,295.3,3.5,5.2,341.3,0.46,0.8,8.5,"10:48:46",1
"23/12/18","11:00",0.0,6.6,64.6,1023.7,291.2,4.4,8.6,276.3,0.46,0.5,8.5,"10:54:36",1
"23/12/18","11:10",0.0,6.8,64.2,1023.2,305.7,4.2,8.5,342.0,0.49,0.6,8.7,"11:02:32",1
"23/12/18","11:20",0.0,7.1,63.3,1023.0,288.5,3.7,6.6,260.9,0.52,0.6,8.7,"11:17:34",1
"23/12/18","11:30",0.0,7.2,64.2,1023.2,313.5,4.0,6.7,334.1,0.49,0.9,8.7,"11:22:40",1
"23/12/18","11:40",0.0,7.1,62.8,1023.4,287.1,3.4,6.4,257.4,0.47,0.5,8.6,"11:30:56",1
"23/12/18","11:50",0.0,7.3,62.6,1023.0,293.1,3.2,6.0,322.6,0.49,0.7,8.9,"11:44:38",1
"23/12/18","12:00",0.0,7.6,62.2,1023.4,299.6,4.0,6.4,324.4,0.50,0.9,8.8,"11:53:32",1
"23/12/18","12:10",0.0,8.2,61.6,1023.2,324.7,2.8,4.9,351.5,0.52,1.3,9.1,"12:03:38",1
"23/12/18","12:20",0.0,7.8,61.2,1022.7,332.1,4.7,8.0,342.8,0.50,0.8,9.1,"12:13:40",1
"23/12/18","12:30",0.0,7.8,61.4,1022.3,322.7,4.0,7.1,255.2,0.49,0.9,9.1,"12:27:08",1
"23/12/18","12:40",0.0,8.0,60.6,1022.3,314.4,4.2,6.8,326.7,0.47,0.9,9.1,"12:31:00",1
"23/12/18","12:50",0.0,8.3,60.0,1022.5,297.9,4.1,7.0,249.2,0.51,1.0,9.4,"12:47:16",1
"23/12/18","13:00",0.0,8.2,59.7,1022.3,286.7,3.6,6.0,324.0,0.48,0.9,9.5,"12:51:48",1
"23/12/18","13:10",0.0,8.4,59.9,1022.5,304.1,3.4,6.3,329.9,0.42,1.1,9.3,"13:02:28",1
"23/12/18","13:20",0.0,8.5,60.1,1022.5,320.3,2.8,5.2,341.5,0.37,1.2,9.6,"13:10:34",1
"23/12/18","13:30",0.0,8.1,59.2,1022.3,335.5,4.0,7.0,344.0,0.29,0.7,9.7,"13:25:36",1
"23/12/18","13:40",0.0,7.4,61.4,1022.0,341.4,4.6,10.4,343.3,0.13,0.5,9.7,"13:34:16",1
"23/12/18","13:50",0.0,7.3,62.5,1022.3,334.5,5.6,9.8,306.7,0.15,0.7,9.8,"13:46:26",1
"23/12/18","14:00",0.0,7.4,62.8,1022.0,322.8,4.5,7.3,340.2,0.14,0.8,9.7,"13:57:28",1
"23/12/18","14:10",0.0,7.9,63.0,1022.0,317.4,3.1,5.5,344.5,0.24,1.3,9.6,"14:00:32",1
"23/12/18","14:20",0.0,8.2,62.6,1022.0,298.2,3.7,7.0,301.3,0.29,1.5,9.8,"14:14:16",1
"23/12/18","14:30",0.0,8.1,61.6,1022.3,326.7,5.0,7.5,335.5,0.29,1.2,9.9,"14:25:48",1
"23/12/18","14:40",0.0,7.9,62.7,1022.0,330.1,4.0,8.7,323.1,0.21,1.3,9.8,"14:37:20",1
"23/12/18","14:50",0.0,7.7,63.0,1021.8,328.7,4.9,8.1,336.2,0.18,1.1,10.0,"14:44:16",1
"23/12/18","15:00",0.0,8.0,63.7,1021.8,336.2,3.1,5.9,330.4,0.18,1.6,9.8,"14:50:32",1
"23/12/18","15:10",0.0,7.8,62.4,1021.5,333.2,3.5,5.1,338.9,0.16,1.1,10.0,"15:07:12",1
"23/12/18","15:20",0.0,7.7,63.6,1021.3,322.4,3.2,6.6,334.6,0.13,1.3,9.7,"15:15:38",1
"23/12/18","15:30",0.0,7.4,64.8,1021.1,321.1,4.1,6.2,319.2,0.10,1.3,10.0,"15:21:12",1
"23/12/18","15:40",0.0,7.4,65.1,1021.3,330.8,3.4,5.4,313.0,0.08,1.3,9.9,"15:30:24",1
"23/12/18","15:50",0.0,7.2,64.7,1021.3,324.1,4.0,7.7,331.1,0.06,1.0,10.0,"15:46:48",1
"23/12/18","16:00",0.0,7.0,65.4,1021.5,326.0,4.1,6.0,339.2,0.04,1.0,10.1,"15:56:56",1
"23/12/18","16:10",0.0,6.9,66.9,1021.5,323.4,3.2,5.0,331.0,0.03,1.2,9.9,"16:07:12",1
"23/12/18","16:20",0.0,6.8,67.7,1021.3,324.5,3.2,5.9,336.8,0.02,1.3,10.0,"16:11:28",1
"23/12/18","16:30",0.0,6.6,68.6,1021.8,331.6,3.4,4.8,340.9,0.00,1.3,10.0,"16:21:20",1
"23/12/18","16:40",0.0,6.4,69.2,1021.5,327.4,4.0,6.3,328.0,0.00,1.2,9.9,"16:32:40",1
"23/12/18","16:50",0.0,6.2,70.4,1022.0,325.2,3.1,4.8,330.9,0.00,1.3,9.9,"16:44:56",1
"23/12/18","17:00",0.0,6.0,71.4,1021.5,320.4,3.0,4.8,333.6,0.00,1.3,9.8,"16:55:52",1
"23/12/18","17:10",0.0,5.8,72.3,1021.8,313.1,3.1,4.8,331.5,0.00,1.2,9.7,"17:02:24",1
"23/12/18","17:20",0.0,5.7,73.1,1021.8,306.7,3.0,4.4,331.5,0.00,1.3,10.1,"17:18:52",1
"23/12/18","17:30",0.0,5.6,74.1,1021.8,312.1,3.7,6.6,326.6,0.00,1.4,9.9,"17:22:40",1
"23/12/18","17:40",0.0,5.5,75.0,1022.0,318.1,4.9,7.8,305.0,0.00,1.5,9.6,"17:38:40",1
"23/12/18","17:50",0.0,5.4,75.7,1022.0,319.5,4.4,6.0,334.1,0.00,1.5,9.7,"17:40:08",1
"23/12/18","18:00",0.0,5.3,76.3,1022.3,317.6,4.2,6.5,328.5,0.00,1.5,9.7,"17:52:04",1
"23/12/18","18:10",0.0,5.3,76.9,1022.5,318.1,4.6,6.8,318.8,0.00,1.6,9.8,"18:07:20",1
"23/12/18","18:20",0.0,5.2,77.4,1022.3,319.7,4.1,5.7,303.6,0.00,1.6,9.7,"18:10:10",1
"23/12/18","18:30",0.0,5.0,77.9,1022.3,329.3,3.5,5.5,321.6,0.00,1.5,9.7,"18:23:26",1
"23/12/18","18:40",0.0,4.9,78.2,1022.0,335.6,2.7,5.0,337.1,0.00,1.5,9.6,"18:30:50",1
"23/12/18","18:50",0.0,4.9,78.2,1022.5,337.2,2.6,4.7,319.4,0.00,1.5,9.4,"18:42:12",1
"23/12/18","19:00",0.0,4.9,78.0,1022.5,334.5,2.1,3.9,299.2,0.00,1.4,9.6,"18:53:00",1
"23/12/18","19:10",0.0,5.1,77.9,1023.2,336.1,2.6,4.8,345.9,0.00,1.6,9.6,"19:09:54",1
"23/12/18","19:20",0.0,5.3,77.4,1022.3,338.3,3.5,5.9,349.3,0.00,1.7,9.6,"19:12:48",1
"23/12/18","19:30",0.0,5.2,77.1,1022.0,312.9,3.0,4.3,303.8,0.00,1.6,9.5,"19:28:22",1
"23/12/18","19:40",0.0,4.9,77.0,1022.0,314.3,1.5,2.7,304.4,0.00,1.3,9.5,"19:34:58",1
"23/12/18","19:50",0.0,4.6,77.4,1022.3,18.8,1.0,1.0,18.8,0.00,1.0,9.3,"19:46:24",1
"23/12/18","20:00",0.0,4.2,78.1,1022.0,326.8,0.5,1.6,341.0,0.00,0.8,9.2,"19:55:40",1
"23/12/18","20:10",0.0,3.6,78.9,1021.8,290.2,1.0,1.7,266.6,0.00,0.3,9.3,"20:03:52",1
"23/12/18","20:20",0.0,3.6,79.6,1021.8,297.5,0.5,1.8,327.8,0.00,0.4,9.3,"20:19:36",1
"23/12/18","20:30",0.0,3.2,80.5,1021.5,331.4,1.1,1.9,339.5,0.00,0.2,9.3,"20:21:42",1
"23/12/18","20:40",0.0,3.0,81.6,1021.8,341.9,1.3,2.0,357.9,0.00,0.2,9.1,"20:31:48",1
"23/12/18","20:50",0.0,2.9,82.7,1021.8,318.8,1.3,1.9,339.5,0.00,0.3,9.3,"20:44:12",1
"23/12/18","21:00",0.0,2.9,84.3,1021.5,305.5,1.7,2.1,319.3,0.00,0.6,9.1,"20:59:58",1
"23/12/18","21:10",0.0,3.2,85.4,1021.8,323.4,1.6,2.5,351.3,0.00,1.0,9.0,"21:08:50",1
"23/12/18","21:20",0.0,3.0,86.3,1021.5,327.2,1.8,2.5,320.0,0.00,1.0,9.0,"21:14:24",1
"23/12/18","21:30",0.0,3.0,87.0,1021.8,312.2,2.2,3.3,321.9,0.00,1.1,9.1,"21:26:40",1
"23/12/18","21:40",0.0,2.9,87.3,1021.8,279.7,1.5,1.7,289.9,0.00,1.0,9.0,"21:30:18",1
"23/12/18","21:50",0.0,2.4,87.8,1021.5,226.3,0.6,1.1,237.6,0.00,0.6,9.1,"21:40:28",1
"23/12/18","22:00",0.0,2.5,88.2,1021.5,292.8,1.6,1.9,325.7,0.00,0.8,9.1,"21:57:48",1
"23/12/18","22:10",0.0,2.4,88.6,1021.3,330.1,1.6,2.1,324.4,0.00,0.8,8.8,"22:00:40",1
"23/12/18","22:20",0.0,1.9,89.0,1021.5,302.8,1.2,1.6,323.9,0.00,0.3,8.9,"22:13:50",1
"23/12/18","22:30",0.0,1.6,89.3,1021.8,292.5,1.3,1.7,275.1,0.00,0.1,8.8,"22:26:08",1
"23/12/18","22:40",0.0,1.4,89.7,1021.1,293.8,1.2,1.4,316.8,0.00,-0.1,8.5,"22:30:16",1
"23/12/18","22:50",0.0,1.6,90.1,1021.3,312.1,1.7,2.5,313.6,0.00,0.2,8.9,"22:49:52",1
"23/12/18","23:00",0.0,1.7,90.4,1021.5,316.9,2.1,2.6,323.0,0.00,0.3,8.8,"22:53:04",1
"23/12/18","23:10",0.0,1.5,90.7,1021.3,319.9,1.5,1.9,323.3,0.00,0.2,8.7,"23:02:08",1
"23/12/18","23:20",0.0,1.4,91.1,1021.3,313.5,1.2,2.4,331.7,0.00,0.1,8.6,"23:19:52",1
"23/12/18","23:30",0.0,2.0,91.4,1021.1,326.9,2.5,3.2,330.5,0.00,0.8,8.6,"23:25:28",1
"23/12/18","23:40",0.0,2.3,91.5,1021.1,285.2,1.6,3.2,319.4,0.00,1.1,8.6,"23:30:32",1
"23/12/18","23:50",0.0,2.2,91.7,1021.1,268.9,0.8,2.2,315.7,0.00,1.0,8.5,"23:49:14",1
"23/12/18","24:00",0.0,2.2,91.8,1021.5,306.9,1.5,2.1,336.0,0.00,1.0,8.5,"23:51:12",1
